Heizelement Heizregister 2500W ET2010620618

214,41 € *
Inhalt: 1 Stück

inkl. MwSt. zzgl. Versandkosten

Sofort versandfertig, Lieferzeit ca. 1-3 Werktage

  • S2010620618
  • 1120990765
Heizelement Heizregister 2500W ET2010620618 mit Temperaturbegrenzer, einsetzbar in Trocknern... mehr
Produktinformationen "Heizelement Heizregister 2500W ET2010620618"

Heizelement Heizregister 2500W ET2010620618

mit Temperaturbegrenzer, einsetzbar in Trocknern

mögliche Aufschriften/Aufdrucke:

SpB647148466KondensK4802J5A
DBK1451601 EH71AEG112538400

-Maße (LxBxH): 230 x 200 x 30 mm -Anschlüsse: 5 x 6,3 mm AMP -Werte: 2500 Watt

passend wie: Electrolux-Konzern/AEG.. 112099076/5.

Gerätegruppe: Trockner
Bauteilgruppe: Heizungen
passend bei: AEG, Alno, Arthur Martin, Carrier, Dometic, Domoline, Electrolux, Faure, Husqvarna, Ikea, Interfunk, Juno, Leonard, Linde, LUNIK, Lux, Multi Brand, Primotecq, Privileg, Professional, Progress, Proline, Prometheus, Rex, Rondo, Rosenlew, Siemens, SILENTIC, Singer, Therma, Volta, Voss, Zanker, Zanussi
unter anderem passend wie bzw. einsetzbar wie: 112 09 90-76/5 = 112099076/5 = 1120990765 =... mehr

unter anderem passend wie bzw. einsetzbar wie:

  • 112 09 90-76/5 = 112099076/5 = 1120990765 = 112099076 (Heizung)
  • Hinweis -> enthalten: 89 9647 40 82-37/8 = 899647408237/8 = 8996474082378 = 899647408237 = 647408237 (Temp.-Begrenzer)
  • 106618 = eu106618
  • DBK1451601 EH71AEG112538400 SpB647148466KondensK4802J5A
  • 02702140 (112099076)
  • 1120990765

    einsetzbar u. a. ggfs. bei Geräten folgender Marken/Hersteller:

    AEG-Electrolux Gruppe, Privileg-Gruppe, NECKERMANN Lloyds,

    folgende Synonyme dienen ausschließlich der Datensuche und geben keine direkte Auskunft über das aktuelle Ersatzteil:

    2500 Watt, 2500Watt, 2500 W, 2500W, 2,5kW, 2,5 kW, Heizregister, Heizung, Heizelement, Heizungen, Heizelemente, Spiralheizkörper, Spiralheizkoerper, Heizkörper, Heizkoerper, Spiralheizung, Spiralheizungen, Heizung, Heizungen, Spiralformheizung, Spiralformheizungen, Spiralheizelement, Spiralheizelemente, Trockner-Heizelement, Trocknerheizelement, Trocknerheizelemente, Heizelement, Heizelemente, Trockner-Heizregister, Trocknerheizregister, Heizregister, Trocknerheizung, Trocknerheizungen, Registerheizung, Registerheizungen, Register, Registerheizelement, Registerheizelemente, Tumble Dryer Element, TumbleDryer Element, TumbleDryerElement, Tumble Dryer Elements, TumbleDryer Elements, TumbleDryerElements, Trockner-Heizung, Trocknerheizung, Trocknerheizungen, Heizung, Heizungen, yy, OriginalTeil, Original, Originale, Originalartikel, OT!, Originalqualität, Originalersatzteil, Originalersatzteile, Originalteile, Originales, Originaler, OrginalTeil, Orginalqualität, Orginalersatzteil, Orginalteil, Orginalteile, zz, Kondenstrockner, Kondenswäschetrockner, Wäschetrockner, Trockner, Kondensationstrockner, Kondensationswäschetrockner, Kondensation, Kondenser, trocknen, dryer, dryers, zz, Wäschetrockner, Trockner, Trockenautomat, Trockenautomaten, Wäschetrockenautomat, Wäschetrockenautomaten, Wäschetrocknen, trocknen, Tumble Dryer, Tumble Dryers, TumbleDryer, TumbleDryers, dryer, dryers,

    LAVATHERM520 91601416300 20010630 LAVATHERMT520 91601416301 20011214 LAVATHERM57320... mehr

    Produkte

    • LAVATHERM520 91601416300 20010630
    • LAVATHERMT520 91601416301 20011214
    • LAVATHERM57320 91601416400 20010930
    • LAVATHERM57320 91601416401 20011214
    • LAVATHERM57329 91601416500 20010920
    • LAVATHERM57329 91601416501 20011214
    • LAVATHERM57520 91601416600 20010920
    • LAVATHERM57520 91601416601 20011214
    • LAVATHERMEXCLUSIV57729 91601417800 20011212
    • LAVATHERM57720 91601417900 20011101
    • LAVATHERM57780 91601418000 20011212
    • LAVATHERMT528 91601418400 20011212
    • LAVATHERMEUROLINEKDE 91601419200 20011213
    • LAVATHERM57329 91601422400 20021002
    • LAVATHERM57729 91601422500 20021016
    • LAVATHERM573EX 91601422800 20021120
    • LAVATHERMGENIUSK 91601422900 20030117
    • LAVATHERM57769 91601424400 20030416
    • LAVATHERM57760 91601424500 20030403
    • LAVATHERM57560 91601424600 20030403
    • LAVATHERM57160 91601424700 20030403
    • LAVATHERM57360 91601424800 20030403
    • LAVATHERM57369 91601424900 20030410
    • LAVATHERM57786 91601425300 20030410
    • LAVATHERM5750 91601425400 20030429
    • LAVATHERM520T 91601416700 20010920
    • LAVATHERM520T 91601416800 20010920
    • LAVATHERM57320 91601417100 20010920
    • LAVATHERM57520 91601417200 20010920
    • LAVATHERM57720 91601417500 20011101
    • LAVATHERMCARAT 91601417600 20011101
    • LAVATHERM57520 91601418300 20011101
    • LAVATHERM57320 91601416900 20011115
    • LAVATHERM57520 91601417000 20011115
    • LAVATHERM575DIAMANT 91601417300 20011115
    • 566CD 91601603800 20011115
    • LAVATHERM57720 91601417700 20011212
    • LAVATHERM57520ES 91601418500 20011213
    • LAVATHERM57520PT 91601418600 20011213
    • LAVATHERM57580ES 91601418700 20011213
    • LAVATHERM57320ESPT 91601418800 20011213
    • LAVATHERMT520ESPT 91601418900 20011213
    • LAVATHERM57724JADENL 91601419300 20011213
    • LAVATHERMT520 91601416701 20011214
    • LAVATHERMT520 91601416801 20011214
    • LAVATHERM57320 91601416901 20011214
    • LAVATHERM57520 91601417001 20011214
    • LAVATHERM57320 91601417101 20011214
    • LAVATHERM57520 91601417201 20011214
    • LAVATHERM575DIAMANT 91601417301 20011214
    • LAVATHERM57320 91601419400 20011214
    • LAVATHERM57520 91601419500 20011214
    • LAVATHERM57720 91601418100 20011218
    • LAVATHERM57720 91601419800 20020210
    • LAVATHERM57720 91601419900 20020224
    • LAVATHERM57520 91601420000 20020224
    • LAVATHERMT520 91601420100 20020224
    • LAVATHERM57720 91601420200 20020225
    • LAVATHERM57720 91601420300 20020310
    • LAVATHERM57520 91601420400 20020310
    • LAVATHERM57320 91601420500 20020310
    • LAVATHERMT520 91601420600 20020310
    • LAVATHERMT520 91601418200 20020415
    • LAVATHERM57720 91601420800 20020415
    • LAVATHERM57520 91601420900 20020503
    • LAVATHERMT520 91601421500 20020610
    • LAVATHERMEUROK 91601421600 20020610
    • LAVATHERMT520 91601421700 20020610
    • LAVATHERM57520 91601421800 20020610
    • LAVATHERM57520 91601422600 20020918
    • LAVATHERMMARYLINEK 91601422700 20021113
    • 7601CD 10308 91601604200 20021204
    • 7621CD 10309 91601604300 20021204
    • LAVATHERM576DIAMANT 91601426200 20030505
    • LAVATHERM57760 91601425000 20030512
    • LAVATHERM57768CARAT 91601426100 20030512
    • LAVATHERM57764JADE 91601426300 20030512
    • LAVATHERM57760 91601425500 20030522
    • LAVATHERM57360 91601426400 20030523
    • LAVATHERM57760 91601426700 20030523
    • LAVATHERM57760 91601426800 20030606
    • 7622CD 10328 91601604500 20030612
    • LAVATHERMT523 91601427100 20030904
    • LAVATHERM57760 91601426600 20031028
    • LAVATHERM574EX 91601427200 20040202
    • LAVATHERMESSENTIAL 91601423000 20030224
    • LAVATHERMT560 91601424000 20030403
    • LAVATHERM57760 91601424100 20030403
    • LAVATHERM57560 91601424200 20030403
    • LAVATHERM57360 91601424300 20030403
    • LAVATHERMCENTURY 91601425200 20030410
    • LAVATHERM57560 91601425100 20030429
    • LAVATHERM57560 91601425600 20030429
    • LAVATHERM57360 91601425700 20030429
    • LAVATHERMT560 91601425800 20030505
    • LAVATHERM57760 91601425900 20030505
    • LAVATHERM57560 91601426000 20030505
    • 44474901 LTH57520 916014166 LAVATHERM57520
    • 47693301 10308 916016042 TROCKNER7601CD
    • 47693401 10309 916016043 TROCKNER7621CD
    • 595713000 LAVATHERM57160 916014247 916014247 595713000LAVATHERM57160 916014247 916014247
    • 595888000 LAVATHERMT520 LAVATHERMT520 KONDENSTROCKNER 595888000LAVATHERMT520 LAVATHERMT520 KONDENSTROCKNER
    • 59714101 10328 91601604500 7622CD 59714101 10328 91601604500 7622CDSIEHEGERAETEINF
    • 61500601 LTH57760 916014245 LAVATHERM57760
    • 63451301 W1201T520 651744806090 W1201T520
    • 64067001 LTH57720 916014179 LAVATHERM57720
    • 72623701 10003 916016038 566CD
    • 777556000 LTH57520 91601416601 LAVATHERM57520WSKOND 777556000LTH57520 91601416601 LAVATHERM57520WSKOND
    • 777846000 LAVATHERM57320 91601416401 91601416401 777846000LAVATHERM57320 91601416401 91601416401
    • 80609002 LTHT520 91601416301 LAVATHERMT520
    • LAVATHERM520 91601416300 20010630
    • LAVATHERMT520 91601416301 20011214
    • LAVATHERM57320 91601416400 20010930
    • LAVATHERM57320 91601416401 20011214
    • LAVATHERM57329 91601416500 20010920
    • LAVATHERM57329 91601416501 20011214
    • LAVATHERM57520 91601416600 20010920
    • LAVATHERM57520 91601416601 20011214
    • LAVATHERMEXCLUSIV57729 91601417800 20011212
    • LAVATHERM57720 91601417900 20011101
    • LAVATHERM57780 91601418000 20011212
    • LAVATHERMT528 91601418400 20011212
    • LAVATHERMEUROLINEKDE 91601419200 20011213
    • LAVATHERM57329 91601422400 20021002
    • LAVATHERM57729 91601422500 20021016
    • LAVATHERM573EX 91601422800 20021120
    • LAVATHERMGENIUSK 91601422900 20030117
    • LAVATHERM57769 91601424400 20030416
    • LAVATHERM57760 91601424500 20030403
    • LAVATHERM57560 91601424600 20030403
    • LAVATHERM57160 91601424700 20030403
    • LAVATHERM57360 91601424800 20030403
    • LAVATHERM57369 91601424900 20030410
    • LAVATHERM57786 91601425300 20030410
    • LAVATHERM5750 91601425400 20030429
    • LAVATHERM520T 91601416700 20010920
    • LAVATHERM520T 91601416800 20010920
    • LAVATHERM57320 91601417100 20010920
    • LAVATHERM57520 91601417200 20010920
    • LAVATHERM57720 91601417500 20011101
    • LAVATHERMCARAT 91601417600 20011101
    • LAVATHERM57520 91601418300 20011101
    • LAVATHERM57320 91601416900 20011115
    • LAVATHERM57520 91601417000 20011115
    • LAVATHERM575DIAMANT 91601417300 20011115
    • 566CD 91601603800 20011115
    • LAVATHERM57720 91601417700 20011212
    • LAVATHERM57520ES 91601418500 20011213
    • LAVATHERM57520PT 91601418600 20011213
    • LAVATHERM57580ES 91601418700 20011213
    • LAVATHERM57320ESPT 91601418800 20011213
    • LAVATHERMT520ESPT 91601418900 20011213
    • LAVATHERM57724JADENL 91601419300 20011213
    • LAVATHERMT520 91601416701 20011214
    • LAVATHERMT520 91601416801 20011214
    • LAVATHERM57320 91601416901 20011214
    • LAVATHERM57520 91601417001 20011214
    • LAVATHERM57320 91601417101 20011214
    • LAVATHERM57520 91601417201 20011214
    • LAVATHERM575DIAMANT 91601417301 20011214
    • LAVATHERM57320 91601419400 20011214
    • LAVATHERM57520 91601419500 20011214
    • LAVATHERM57720 91601418100 20011218
    • LAVATHERM57720 91601419800 20020210
    • LAVATHERM57720 91601419900 20020224
    • LAVATHERM57520 91601420000 20020224
    • LAVATHERMT520 91601420100 20020224
    • LAVATHERM57720 91601420200 20020225
    • LAVATHERM57720 91601420300 20020310
    • LAVATHERM57520 91601420400 20020310
    • LAVATHERM57320 91601420500 20020310
    • LAVATHERMT520 91601420600 20020310
    • LAVATHERMT520 91601418200 20020415
    • LAVATHERM57720 91601420800 20020415
    • LAVATHERM57520 91601420900 20020503
    • LAVATHERMT520 91601421500 20020610
    • LAVATHERMEUROK 91601421600 20020610
    • LAVATHERMT520 91601421700 20020610
    • LAVATHERM57520 91601421800 20020610
    • LAVATHERM57520 91601422600 20020918
    • LAVATHERMMARYLINEK 91601422700 20021113
    • 7601CD 10308 91601604200 20021204
    • 7621CD 10309 91601604300 20021204
    • LAVATHERM576DIAMANT 91601426200 20030505
    • LAVATHERM57760 91601425000 20030512
    • LAVATHERM57768CARAT 91601426100 20030512
    • LAVATHERM57764JADE 91601426300 20030512
    • LAVATHERM57760 91601425500 20030522
    • LAVATHERM57360 91601426400 20030523
    • LAVATHERM57760 91601426700 20030523
    • LAVATHERM57760 91601426800 20030606
    • 7622CD 10328 91601604500 20030612
    • LAVATHERMT523 91601427100 20030904
    • LAVATHERM57760 91601426600 20031028
    • LAVATHERM574EX 91601427200 20040202
    • LAVATHERMESSENTIAL 91601423000 20030224
    • LAVATHERMT560 91601424000 20030403
    • LAVATHERM57760 91601424100 20030403
    • LAVATHERM57560 91601424200 20030403
    • LAVATHERM57360 91601424300 20030403
    • LAVATHERMCENTURY 91601425200 20030410
    • LAVATHERM57560 91601425100 20030429
    • LAVATHERM57560 91601425600 20030429
    • LAVATHERM57360 91601425700 20030429
    • LAVATHERMT560 91601425800 20030505
    • LAVATHERM57760 91601425900 20030505
    • LAVATHERM57560 91601426000 20030505
    • 44474901 LTH57520 916014166 LAVATHERM57520
    • 47693301 10308 916016042 TROCKNER7601CD
    • 47693401 10309 916016043 TROCKNER7621CD
    • 595713000 LAVATHERM57160 916014247 916014247 595713000LAVATHERM57160 916014247 916014247
    • 595888000 LAVATHERMT520 LAVATHERMT520 KONDENSTROCKNER 595888000LAVATHERMT520 LAVATHERMT520 KONDENSTROCKNER
    • 59714101 10328 91601604500 7622CD 59714101 10328 91601604500 7622CDSIEHEGERAETEINF
    • 61500601 LTH57760 916014245 LAVATHERM57760
    • 63451301 W1201T520 651744806090 W1201T520
    • 64067001 LTH57720 916014179 LAVATHERM57720
    • 72623701 10003 916016038 566CD
    • 777556000 LTH57520 91601416601 LAVATHERM57520WSKOND 777556000LTH57520 91601416601 LAVATHERM57520WSKOND
    • 777846000 LAVATHERM57320 91601416401 91601416401 777846000LAVATHERM57320 91601416401 91601416401
    • 80609002 LTHT520 91601416301 LAVATHERMT520
    • Ihr gesuchtes Produkt ist nicht in der Liste?
      Nutzen Sie bitte die Suche oder kontaktieren Sie uns.
      Kontaktformular
    Bewertungen lesen, schreiben und diskutieren... mehr
    Kundenbewertungen für "Heizelement Heizregister 2500W ET2010620618"
    Bewertung schreiben
    Bewertungen werden nach Überprüfung freigeschaltet.
    Bitte geben Sie die Zeichenfolge in das nachfolgende Textfeld ein.

    Die mit einem * markierten Felder sind Pflichtfelder.

    Ich habe die Datenschutzbestimmungen zur Kenntnis genommen.

    Zuletzt angesehen